SP9MLI-1 Weather Reports


time (UTC)temp
C
wind
direction
speed
KPH
gust
KPH
rain 1hr
cm
rain 24hr
cm
rain mn
cm
humidity
%
barometer
mb
20260905124109 15 243 0.0 4.8 0.00 0.69 0.00 97 1009.9
20260905122609 15 243 0.0 4.8 0.00 0.69 0.00 97 1009.9
20260905121109 15 243 0.0 4.8 0.00 0.69 0.00 97 1009.9
20260905115611 15 243 0.0 4.8 0.00 0.69 0.00 97 1009.9
20260905114110 15 233 0.0 4.8 0.00 0.69 0.00 98 1009.9
20260905112610 14 245 0.0 4.8 0.00 0.69 0.00 99 1009.3
20260905111108 15 245 0.0 4.8 0.00 0.69 0.00 99 1009.3
20260905105608 15 261 1.6 4.8 0.00 0.69 0.00 99 1009.6
20260905104110 15 243 0.0 0.0 0.00 0.69 0.00 99 1008.9
20260905102610 17 247 0.0 0.0 0.71 0.46 0.00 96 1008.6
20260905101110 17 247 0.0 0.0 0.71 0.46 0.00 96 1008.6
20260905095610 17 247 0.0 0.0 0.71 0.46 0.00 96 1008.6
20260905094110 17 247 0.0 0.0 0.71 0.46 0.00 96 1008.6
20260905092610 17 250 0.0 0.0 0.18 0.36 0.00 94 1008.9
20260905091110 18 238 0.0 4.8 0.00 0.30 0.00 88 1008.6
20260905085610 18 241 0.0 0.0 0.00 0.30 0.00 86 1007.9
20260905084110 18 247 0.0 0.0 0.00 0.30 0.00 83 1008.2
20260905082610 18 243 0.0 0.0 0.00 0.30 0.00 86 1007.6
20260905081110 17 234 0.0 0.0 0.00 0.30 0.00 91 1007.2
20260905075610 13 247 1.6 4.8 0.18 0.28 0.00 99 1005.9
20260905074110 13 247 1.6 4.8 0.18 0.28 0.00 99 1005.9
20260905072610 13 247 1.6 4.8 0.18 0.28 0.00 99 1005.9
20260905071110 13 247 1.6 4.8 0.18 0.28 0.00 99 1005.9
20260905065610 13 260 0.0 4.8 0.00 0.23 0.00 99 1005.5
20260905064110 13 241 0.0 0.0 0.53 0.23 0.00 99 1005.2
20260905062610 13 248 3.2 8.0 0.00 0.15 0.00 99 1005.2
20260905061109 14 199 6.4 8.0 0.00 0.15 0.00 99 1004.5
20260905055609 14 243 0.0 0.0 0.18 0.13 0.00 99 1004.9
20260905054110 14 244 0.0 0.0 0.00 0.10 0.00 96 1004.5
20260905052609 13 247 0.0 0.0 0.00 0.10 0.00 97 1003.8
20260905051110 13 244 0.0 0.0 0.00 0.10 0.00 99 1003.8
20260905045610 13 244 0.0 0.0 0.00 0.10 0.00 99 1003.8
20260905044109 13 243 0.0 0.0 0.00 0.10 0.00 99 1003.8
20260905042609 13 245 0.0 0.0 0.00 0.10 0.00 99 1003.8
20260905041109 13 241 0.0 4.8 0.00 0.10 0.00 99 1003.5
20260905035609 13 243 0.0 0.0 0.00 0.10 0.00 99 1003.5
20260905034109 13 245 0.0 0.0 0.00 0.10 0.00 99 1003.5
20260905032610 13 247 0.0 0.0 0.00 0.10 0.00 99 1003.2
20260905025609 13 244 0.0 0.0 0.00 0.05 0.00 99 1002.8
20260905024109 13 244 0.0 0.0 0.00 0.05 0.00 99 1002.8
20260905022610 13 244 0.0 0.0 0.00 0.05 0.00 99 1002.8
20260905021109 13 244 0.0 0.0 0.00 0.05 0.00 99 1002.8
20260905015609 13 15 0.0 0.0 0.00 0.05 0.00 99 1002.5
20260905014109 13 251 0.0 0.0 0.00 0.05 0.00 99 1002.5